Location: Colonia Mina de C?rbuni
(46.1667°N, 22.7167°E)
Time: 06:11:12
(UTC+00:00)

Tiros 1 - Pass Details

Date: 22 April 2024
Orbit: 624 x 657 km, 48.4° (Epoch: 25 May)

Event Time Altitude Azimuth Distance (km) Brightness Sun altitude
Exits shadow 02:40:06 - 288° (WNW) 2,778 10.0 -8.7°
Reaches altitude 10° 02:42:05 10° 287° (WNW) 2,002 9.3 -8.4°
Maximum altitude 02:46:40 71° 204° (SSW) 663 7.1 -7.7°
Drops below altitude 10° 02:51:13 10° 120° (ESE) 1,989 10.2 -7.0°
Sets 02:53:32 0° 119° (ESE) 2,894 11.1 -6.7°
